,,,PA_Meas_PMT16A,,PR_Meas_QMR101_102,,RH_Meas_QMH101,,SR_Meas_QMS101,,TA_Meas_QMH101,,GenWind,,GenWind,
date,time,status,PA,status,PR,status,RH,status,SR,status,TA,status,DirAvg,status,SpdAvg,
2012-04-03, 00:00:04,VALID,1007.52,VALID,0,VALID,86.2445,VALID,0,VALID,25.5707,VALID,352,VALID,0.218359,
2012-04-03, 00:01:04,VALID,1007.52,VALID,0,VALID,86.3132,VALID,0,VALID,25.5921,VALID,256,VALID,0.593359,
2012-04-03, 00:02:04,VALID,1007.52,VALID,0,VALID,86.3666,VALID,0,VALID,25.5921,VALID,340,VALID,0.867188,
2012-04-03, 00:03:04,VALID,1007.52,VALID,0,VALID,86.3666,VALID,0,VALID,25.5727,VALID,346,VALID,0.380078,
2012-04-03, 00:04:04,VALID,1007.52,VALID,0,VALID,86.481,VALID,0,VALID,25.5727,VALID,349,VALID,1.19727,
2012-04-03, 00:05:04,VALID,1007.53,VALID,0,VALID,86.3742,VALID,0,VALID,25.5921,VALID,316,VALID,0.460156,
2012-04-03, 00:06:04,VALID,1007.47,VALID,0,VALID,86.4123,VALID,0,VALID,25.5921,VALID,333,VALID,0.651172,
2012-04-03, 00:07:04,VALID,1007.5,VALID,0,VALID,86.4047,VALID,0,VALID,25.5902,VALID,319,VALID,0.605859,
2012-04-03, 00:08:04,VALID,1007.49,VALID,0,VALID,86.336,VALID,0,VALID,25.6506,VALID,334,VALID,0.309375,
2012-04-03, 00:09:04,VALID,1007.44,VALID,0,VALID,86.2598,VALID,0,VALID,25.6311,VALID,316,VALID,0.528906,
2012-04-03, 00:10:04,VALID,1007.47,VALID,0,VALID,86.2674,VALID,0,VALID,25.6311,VALID,336,VALID,0.636719,
2012-04-03, 00:11:04,VALID,1007.45,VALID,0,VALID,86.275,VALID,0,VALID,25.6506,VALID,348,VALID,0.704687,
2012-04-03, 00:12:04,VALID,1007.45,VALID,0,VALID,86.2216,VALID,0,VALID,25.67,VALID,337,VALID,0.210547,
2012-04-03, 00:13:04,VALID,1007.42,VALID,0,VALID,86.2826,VALID,0,VALID,25.6486,VALID,342,VALID,0.175,
2012-04-03, 00:14:04,VALID,1007.41,VALID,0,VALID,86.3208,VALID,0,VALID,25.6506,VALID,342,VALID,0.0238281,
2012-04-03, 00:15:04,VALID,1007.38,VALID,0,VALID,86.4505,VALID,0,VALID,25.6311,VALID,324,VALID,0.816406,
2012-04-03, 00:16:04,VALID,1007.35,VALID,0,VALID,86.4276,VALID,0,VALID,25.6097,VALID,351,VALID,0.69375,
2012-04-03, 00:17:04,VALID,1007.37,VALID,0,VALID,86.3742,VALID,0,VALID,25.6506,VALID,342,VALID,0.282422,
2012-04-03, 00:18:04,VALID,1007.34,VALID,0,VALID,86.4657,VALID,0,VALID,25.6525,VALID,320,VALID,0.754297,
2012-04-03, 00:19:04,VALID,1007.32,VALID,0,VALID,86.5115,VALID,0,VALID,25.6311,VALID,349,VALID,0.562109,
2012-04-03, 00:20:04,VALID,1007.3,VALID,0,VALID,86.5344,VALID,0,VALID,25.6116,VALID,344,VALID,0.764063,
2012-04-03, 00:21:04,VALID,1007.31,VALID,0,VALID,86.6031,VALID,0,VALID,25.6116,VALID,339,VALID,0.265234,
2012-04-03, 00:22:04,VALID,1007.3,VALID,0,VALID,86.7404,VALID,0,VALID,25.5707,VALID,338,VALID,0.176172,
2012-04-03, 00:23:04,VALID,1007.32,VALID,0,VALID,86.7785,VALID,0,VALID,25.5513,VALID,338,VALID,0,
2012-04-03, 00:24:04,VALID,1007.33,VALID,0,VALID,86.8319,VALID,0,VALID,25.5727,VALID,301,VALID,0.405078,
2012-04-03, 00:25:04,VALID,1007.29,VALID,0,VALID,86.8319,VALID,0,VALID,25.5513,VALID,290,VALID,0.353906,
2012-04-03, 00:26:04,VALID,1007.27,VALID,0,VALID,86.8014,VALID,0,VALID,25.5513,VALID,290,VALID,0.0152344,
2012-04-03, 00:27:04,VALID,1007.24,VALID,0,VALID,86.8548,VALID,0,VALID,25.5318,VALID,325,VALID,0.291406,
2012-04-03, 00:28:04,VALID,1007.25,VALID,0,VALID,86.9082,VALID,0,VALID,25.5123,VALID,342,VALID,0.731641,
2012-04-03, 00:29:04,VALID,1007.2,VALID,0,VALID,86.9311,VALID,0,VALID,25.5123,VALID,16,VALID,0.625391,
2012-04-03, 00:30:04,VALID,1007.17,VALID,0,VALID,86.8472,VALID,0,VALID,25.5532,VALID,14,VALID,0.357031,
2012-04-03, 00:31:04,VALID,1007.16,VALID,0,VALID,86.8853,VALID,0,VALID,25.5337,VALID,7,VALID,0.046875,
2012-04-03, 00:32:04,VALID,1007.15,VALID,0,VALID,86.9082,VALID,0,VALID,25.5123,VALID,342,VALID,0.647656,
2012-04-03, 00:33:04,VALID,1007.11,VALID,0,VALID,86.9235,VALID,0,VALID,25.4928,VALID,356,VALID,0.703906,
2012-04-03, 00:34:04,VALID,1007.09,VALID,0,VALID,86.9311,VALID,0,VALID,25.5142,VALID,348,VALID,0.847656,
2012-04-03, 00:35:04,VALID,1007.09,VALID,0,VALID,86.9387,VALID,0,VALID,25.4948,VALID,354,VALID,0.714453,
2012-04-03, 00:36:04,VALID,1007.05,VALID,0,VALID,86.9769,VALID,0,VALID,25.4539,VALID,1,VALID,0.637891,
2012-04-03, 00:37:04,VALID,1007.03,VALID,0,VALID,87.0226,VALID,0,VALID,25.4753,VALID,360,VALID,0.0273438,
2012-04-03, 00:38:04,VALID,1007.01,VALID,0,VALID,87.1142,VALID,0,VALID,25.4344,VALID,342,VALID,0.396484,
2012-04-03, 00:39:04,VALID,1007,VALID,0,VALID,87.1371,VALID,0,VALID,25.4363,VALID,341,VALID,0.0164062,
2012-04-03, 00:40:04,VALID,1007.01,VALID,0,VALID,87.1828,VALID,0,VALID,25.3974,VALID,317,VALID,0.346875,
2012-04-03, 00:41:04,VALID,1006.97,VALID,0,VALID,87.1828,VALID,0,VALID,25.3974,VALID,356,VALID,0.708984,
2012-04-03, 00:42:04,VALID,1006.96,VALID,0,VALID,87.2286,VALID,0,VALID,25.3546,VALID,306,VALID,0.305859,
2012-04-03, 00:43:04,VALID,1006.94,VALID,0,VALID,87.2591,VALID,0,VALID,25.376,VALID,323,VALID,0.194922,
2012-04-03, 00:44:04,VALID,1006.94,VALID,0,VALID,87.282,VALID,0,VALID,25.3779,VALID,295,VALID,0.69375,
2012-04-03, 00:45:04,VALID,1006.88,VALID,0,VALID,87.3049,VALID,0,VALID,25.3565,VALID,275,VALID,0.391016,
2012-04-03, 00:46:04,VALID,1006.95,VALID,0,VALID,87.16,VALID,0,VALID,25.376,VALID,334,VALID,0.817578,
2012-04-03, 00:47:04,VALID,1006.91,VALID,0,VALID,87.0532,VALID,0,VALID,25.376,VALID,342,VALID,1.0375,
2012-04-03, 00:48:04,VALID,1006.92,VALID,0,VALID,87.0303,VALID,0,VALID,25.4149,VALID,350,VALID,0.818359,
2012-04-03, 00:49:04,VALID,1006.9,VALID,0,VALID,87.0684,VALID,0,VALID,25.3955,VALID,351,VALID,0.680859,
2012-04-03, 00:50:04,VALID,1006.87,VALID,0,VALID,87.1066,VALID,0,VALID,25.3565,VALID,348,VALID,1.275,
2012-04-03, 00:51:04,VALID,1006.86,VALID,0,VALID,87.1676,VALID,0,VALID,25.3565,VALID,344,VALID,0.788281,
2012-04-03, 00:52:04,VALID,1006.83,VALID,0,VALID,87.2591,VALID,0,VALID,25.3584,VALID,343,VALID,0.70625,
2012-04-03, 00:53:04,VALID,1006.84,VALID,0,VALID,87.3888,VALID,0,VALID,25.3195,VALID,355,VALID,0.957812,
2012-04-03, 00:54:04,VALID,1006.81,VALID,0,VALID,87.4804,VALID,0,VALID,25.2786,VALID,352,VALID,0.698438,
2012-04-03, 00:55:04,VALID,1006.81,VALID,0,VALID,87.5643,VALID,0,VALID,25.2592,VALID,351,VALID,0.825781,
2012-04-03, 00:56:04,VALID,1006.79,VALID,0,VALID,87.6635,VALID,0,VALID,25.2397,VALID,350,VALID,0.806641,
2012-04-03, 00:57:04,VALID,1006.78,VALID,0,VALID,87.7169,VALID,0,VALID,25.2611,VALID,345,VALID,0.689453,
2012-04-03, 00:58:04,VALID,1006.79,VALID,0,VALID,87.7169,VALID,0,VALID,25.2611,VALID,331,VALID,0.216797,
2012-04-03, 00:59:04,VALID,1006.77,VALID,0,VALID,87.7932,VALID,0,VALID,25.2416,VALID,331,VALID,0.0195313,
2012-04-03, 01:00:04,VALID,1006.78,VALID,0,VALID,87.8923,VALID,0,VALID,25.2416,VALID,332,VALID,0.0265625,
2012-04-03, 01:01:04,VALID,1006.79,VALID,0,VALID,88.0373,VALID,0,VALID,25.2007,VALID,350,VALID,0.0664063,
2012-04-03, 01:02:04,VALID,1006.83,VALID,0,VALID,88.1441,VALID,0,VALID,25.1813,VALID,359,VALID,0.698828,
2012-04-03, 01:03:04,VALID,1006.8,VALID,0,VALID,88.2127,VALID,0,VALID,25.1618,VALID,359,VALID,0.486719,
2012-04-03, 01:04:04,VALID,1006.8,VALID,0,VALID,88.2814,VALID,0,VALID,25.1618,VALID,360,VALID,0.430859,
2012-04-03, 01:05:04,VALID,1006.78,VALID,0,VALID,88.2967,VALID,0,VALID,25.1832,VALID,353,VALID,1.0082,
2012-04-03, 01:06:04,VALID,1006.74,VALID,0,VALID,88.3043,VALID,0,VALID,25.1832,VALID,315,VALID,0.710547,
2012-04-03, 01:07:04,VALID,1006.74,VALID,0,VALID,88.2967,VALID,0,VALID,25.2027,VALID,346,VALID,1.09727,
2012-04-03, 01:08:04,VALID,1006.71,VALID,0,VALID,88.1136,VALID,0,VALID,25.2221,VALID,340,VALID,0.425,
2012-04-03, 01:09:04,VALID,1006.69,VALID,0,VALID,88.1746,VALID,0,VALID,25.2007,VALID,351,VALID,0.571875,
2012-04-03, 01:10:04,VALID,1006.7,VALID,0,VALID,88.1517,VALID,0,VALID,25.2027,VALID,14,VALID,0.847656,
2012-04-03, 01:11:04,VALID,1006.69,VALID,0,VALID,88.2814,VALID,0,VALID,25.2027,VALID,348,VALID,1.22344,
2012-04-03, 01:12:04,VALID,1006.69,VALID,0,VALID,88.2814,VALID,0,VALID,25.2027,VALID,353,VALID,0.673828,
2012-04-03, 01:13:04,VALID,1006.68,VALID,0,VALID,88.289,VALID,0,VALID,25.2007,VALID,352,VALID,0.946484,
2012-04-03, 01:14:04,VALID,1006.66,VALID,0,VALID,88.1975,VALID,0,VALID,25.2416,VALID,345,VALID,0.938672,
2012-04-03, 01:15:04,VALID,1006.63,VALID,0,VALID,88.0907,VALID,0,VALID,25.2397,VALID,336,VALID,0.801562,
2012-04-03, 01:16:04,VALID,1006.63,VALID,0,VALID,88.0907,VALID,0,VALID,25.2397,VALID,341,VALID,0.677344,
2012-04-03, 01:17:04,VALID,1006.64,VALID,0,VALID,88.0678,VALID,0,VALID,25.2611,VALID,346,VALID,0.0890625,
2012-04-03, 01:18:04,VALID,1006.6,VALID,0,VALID,88.1746,VALID,0,VALID,25.2397,VALID,329,VALID,0.720703,
2012-04-03, 01:19:04,VALID,1006.61,VALID,0,VALID,88.1975,VALID,0,VALID,25.2397,VALID,349,VALID,0.748047,
2012-04-03, 01:20:04,VALID,1006.6,VALID,0,VALID,88.228,VALID,0,VALID,25.2397,VALID,349,VALID,0.823047,
2012-04-03, 01:21:04,VALID,1006.59,VALID,0,VALID,88.1593,VALID,0,VALID,25.2397,VALID,347,VALID,0.419922,
2012-04-03, 01:22:04,VALID,1006.58,VALID,0,VALID,88.228,VALID,0,VALID,25.2202,VALID,1,VALID,0.889844,
2012-04-03, 01:23:04,VALID,1006.6,VALID,0,VALID,88.1746,VALID,0,VALID,25.2397,VALID,348,VALID,0.649219,
2012-04-03, 01:24:04,VALID,1006.57,VALID,0,VALID,88.1899,VALID,0,VALID,25.2397,VALID,352,VALID,0.665625,
2012-04-03, 01:25:04,VALID,1006.59,VALID,0,VALID,88.167,VALID,0,VALID,25.2611,VALID,336,VALID,0.74375,
2012-04-03, 01:26:04,VALID,1006.58,VALID,0,VALID,88.1365,VALID,0,VALID,25.2611,VALID,330,VALID,0.235547,
2012-04-03, 01:27:04,VALID,1006.57,VALID,0,VALID,88.2127,VALID,0,VALID,25.2397,VALID,319,VALID,0.336328,
2012-04-03, 01:28:04,VALID,1006.58,VALID,0,VALID,88.2204,VALID,0,VALID,25.2611,VALID,320,VALID,0,
2012-04-03, 01:29:04,VALID,1006.57,VALID,0,VALID,88.1975,VALID,0,VALID,25.2397,VALID,342,VALID,0.641016,
2012-04-03, 01:30:04,VALID,1006.56,VALID,0,VALID,88.1899,VALID,0,VALID,25.2611,VALID,353,VALID,0.655078,
2012-04-03, 01:31:04,VALID,1006.55,VALID,0,VALID,88.1593,VALID,0.0815089,VALID,25.2806,VALID,357,VALID,0.742188,
2012-04-03, 01:32:04,VALID,1006.53,VALID,0,VALID,87.9991,VALID,0,VALID,25.2786,VALID,336,VALID,0.750391,
2012-04-03, 01:33:04,VALID,1006.54,VALID,0,VALID,87.9076,VALID,0,VALID,25.2981,VALID,343,VALID,1.13594,
2012-04-03, 01:34:04,VALID,1006.52,VALID,0,VALID,87.8923,VALID,0,VALID,25.3195,VALID,356,VALID,0.845312,
2012-04-03, 01:35:04,VALID,1006.51,VALID,0,VALID,87.8923,VALID,0,VALID,25.2981,VALID,347,VALID,0.798828,
2012-04-03, 01:36:04,VALID,1006.49,VALID,0,VALID,87.8771,VALID,0,VALID,25.3195,VALID,348,VALID,0.970312,
2012-04-03, 01:37:04,VALID,1006.51,VALID,0,VALID,87.8618,VALID,0,VALID,25.3195,VALID,340,VALID,0.891406,
2012-04-03, 01:38:04,VALID,1006.5,VALID,0,VALID,87.9534,VALID,0,VALID,25.3195,VALID,339,VALID,0.817187,
2012-04-03, 01:39:04,VALID,1006.5,VALID,0,VALID,87.9686,VALID,0,VALID,25.2981,VALID,334,VALID,0.485547,
2012-04-03, 01:40:04,VALID,1006.48,VALID,0,VALID,88.0449,VALID,0,VALID,25.2981,VALID,328,VALID,0.718359,
2012-04-03, 01:41:04,VALID,1006.47,VALID,0,VALID,87.9991,VALID,0,VALID,25.3,VALID,343,VALID,1.00898,
2012-04-03, 01:42:04,VALID,1006.45,VALID,0,VALID,87.9839,VALID,0,VALID,25.2981,VALID,349,VALID,0.794531,
2012-04-03, 01:43:04,VALID,1006.44,VALID,0,VALID,88.022,VALID,0,VALID,25.3195,VALID,356,VALID,1.03281,
2012-04-03, 01:44:04,VALID,1006.43,VALID,0,VALID,87.9915,VALID,0,VALID,25.2981,VALID,358,VALID,0.869531,
2012-04-03, 01:45:04,VALID,1006.42,VALID,0,VALID,87.9839,VALID,0,VALID,25.3,VALID,337,VALID,0.623047,
2012-04-03, 01:46:04,VALID,1006.4,VALID,0,VALID,88.0602,VALID,0,VALID,25.3195,VALID,359,VALID,0.838281,
2012-04-03, 01:47:04,VALID,1006.41,VALID,0,VALID,88.1441,VALID,0,VALID,25.2981,VALID,347,VALID,1.07773,
2012-04-03, 01:48:04,VALID,1006.35,VALID,0,VALID,88.1593,VALID,0,VALID,25.2981,VALID,345,VALID,1.11914,
2012-04-03, 01:49:04,VALID,1006.36,VALID,0,VALID,88.2127,VALID,0,VALID,25.2981,VALID,359,VALID,1.325,
2012-04-03, 01:50:04,VALID,1006.33,VALID,0,VALID,88.167,VALID,0,VALID,25.2981,VALID,337,VALID,0.924609,
2012-04-03, 01:51:04,VALID,1006.33,VALID,0,VALID,88.2204,VALID,0,VALID,25.2981,VALID,348,VALID,1.11523,
2012-04-03, 01:52:04,VALID,1006.3,VALID,0,VALID,88.2738,VALID,0.0815089,VALID,25.2786,VALID,342,VALID,0.388281,
2012-04-03, 01:53:04,VALID,1006.3,VALID,0,VALID,88.3195,VALID,0,VALID,25.3,VALID,351,VALID,0.386719,
2012-04-03, 01:54:04,VALID,1006.28,VALID,0,VALID,88.3729,VALID,0,VALID,25.3195,VALID,266,VALID,0.364062,
2012-04-03, 01:55:04,VALID,1006.28,VALID,0,VALID,88.4187,VALID,0,VALID,25.2786,VALID,4,VALID,0.7125,
2012-04-03, 01:56:04,VALID,1006.24,VALID,0,VALID,88.4035,VALID,0,VALID,25.2786,VALID,351,VALID,0.716797,
2012-04-03, 01:57:04,VALID,1006.24,VALID,0,VALID,88.3882,VALID,0,VALID,25.2786,VALID,333,VALID,0.378906,
2012-04-03, 01:58:04,VALID,1006.27,VALID,0,VALID,88.4187,VALID,0,VALID,25.2786,VALID,349,VALID,0.5625,
2012-04-03, 01:59:04,VALID,1006.27,VALID,0,VALID,88.4721,VALID,0,VALID,25.2786,VALID,357,VALID,0.925,
2012-04-03, 02:00:04,VALID,1006.3,VALID,0,VALID,88.4492,VALID,0,VALID,25.3,VALID,353,VALID,0.917578,
2012-04-03, 02:01:04,VALID,1006.3,VALID,0,VALID,88.4264,VALID,0,VALID,25.2981,VALID,344,VALID,0.971094,
2012-04-03, 02:02:04,VALID,1006.28,VALID,0,VALID,88.3958,VALID,0,VALID,25.2981,VALID,351,VALID,0.784766,
2012-04-03, 02:03:04,VALID,1006.3,VALID,0,VALID,88.4187,VALID,0,VALID,25.2981,VALID,348,VALID,0.916406,
2012-04-03, 02:04:04,VALID,1006.28,VALID,0,VALID,88.434,VALID,0,VALID,25.3,VALID,355,VALID,0.652344,
2012-04-03, 02:05:04,VALID,1006.26,VALID,0,VALID,88.4874,VALID,0,VALID,25.2592,VALID,355,VALID,0.907031,
2012-04-03, 02:06:04,VALID,1006.29,VALID,0,VALID,88.5789,VALID,0,VALID,25.2592,VALID,340,VALID,0.891406,
2012-04-03, 02:07:04,VALID,1006.29,VALID,0,VALID,88.5255,VALID,0,VALID,25.2378,VALID,350,VALID,0.637891,
2012-04-03, 02:08:04,VALID,1006.29,VALID,0,VALID,88.5179,VALID,0,VALID,25.2592,VALID,344,VALID,0.5125,
2012-04-03, 02:09:04,VALID,1006.3,VALID,0,VALID,88.5255,VALID,0,VALID,25.2397,VALID,343,VALID,1.10977,
2012-04-03, 02:10:04,VALID,1006.32,VALID,0,VALID,88.5332,VALID,0,VALID,25.2397,VALID,350,VALID,0.989844,
2012-04-03, 02:11:04,VALID,1006.28,VALID,0,VALID,88.556,VALID,0,VALID,25.2397,VALID,342,VALID,0.899609,
2012-04-03, 02:12:04,VALID,1006.24,VALID,0,VALID,88.6094,VALID,0,VALID,25.2007,VALID,342,VALID,0.832422,
2012-04-03, 02:13:04,VALID,1006.24,VALID,0,VALID,88.6247,VALID,0,VALID,25.2202,VALID,12,VALID,1.31953,
2012-04-03, 02:14:04,VALID,1006.22,VALID,0,VALID,88.6552,VALID,0,VALID,25.2416,VALID,346,VALID,1.41172,
2012-04-03, 02:15:04,VALID,1006.18,VALID,0,VALID,88.64,VALID,0,VALID,25.2416,VALID,346,VALID,0.639063,
2012-04-03, 02:16:04,VALID,1006.14,VALID,0,VALID,88.6094,VALID,0,VALID,25.2416,VALID,338,VALID,0.753516,
2012-04-03, 02:17:04,VALID,1006.11,VALID,0,VALID,88.64,VALID,0,VALID,25.2416,VALID,347,VALID,0.910547,
2012-04-03, 02:18:04,VALID,1006.1,VALID,0,VALID,88.6934,VALID,0,VALID,25.2221,VALID,347,VALID,0.587891,
2012-04-03, 02:19:04,VALID,1006.1,VALID,0,VALID,88.7544,VALID,0,VALID,25.2221,VALID,345,VALID,0.725,
2012-04-03, 02:20:04,VALID,1006.13,VALID,0,VALID,88.8078,VALID,0,VALID,25.1794,VALID,329,VALID,0.317969,
2012-04-03, 02:21:04,VALID,1006.15,VALID,0,VALID,88.8307,VALID,0,VALID,25.2416,VALID,327,VALID,0.692187,
2012-04-03, 02:22:04,VALID,1006.13,VALID,0,VALID,88.8612,VALID,0,VALID,25.2221,VALID,349,VALID,0.503906,
2012-04-03, 02:23:04,VALID,1006.11,VALID,0,VALID,88.8612,VALID,0,VALID,25.2221,VALID,305,VALID,0.28125,
2012-04-03, 02:24:04,VALID,1006.12,VALID,0,VALID,88.8383,VALID,0,VALID,25.2416,VALID,356,VALID,0.446875,
2012-04-03, 02:25:04,VALID,1006.13,VALID,0,VALID,88.8307,VALID,0,VALID,25.2611,VALID,355,VALID,0.389062,
2012-04-03, 02:26:04,VALID,1006.14,VALID,0,VALID,88.8383,VALID,0,VALID,25.2397,VALID,358,VALID,0.826172,
2012-04-03, 02:27:04,VALID,1006.15,VALID,0,VALID,88.7697,VALID,0,VALID,25.2806,VALID,349,VALID,0.726563,
2012-04-03, 02:28:04,VALID,1006.13,VALID,0,VALID,88.7391,VALID,0,VALID,25.2592,VALID,349,VALID,0.472266,
2012-04-03, 02:29:04,VALID,1006.12,VALID,0,VALID,88.7239,VALID,0,VALID,25.2981,VALID,343,VALID,0.221484,
2012-04-03, 02:30:04,VALID,1006.08,VALID,0,VALID,88.6476,VALID,0,VALID,25.3195,VALID,350,VALID,0.680859,
2012-04-03, 02:31:04,VALID,1006.11,VALID,0,VALID,88.6018,VALID,0,VALID,25.3195,VALID,304,VALID,0.296484,
2012-04-03, 02:32:04,VALID,1006.08,VALID,0,VALID,88.4721,VALID,0,VALID,25.337,VALID,350,VALID,0.716406,
2012-04-03, 02:33:04,VALID,1006.07,VALID,0,VALID,88.4111,VALID,0,VALID,25.3974,VALID,349,VALID,0.0777344,
2012-04-03, 02:34:04,VALID,1006.08,VALID,0,VALID,88.3653,VALID,0,VALID,25.3974,VALID,347,VALID,0.3625,
2012-04-03, 02:35:04,VALID,1006.04,VALID,0,VALID,88.4111,VALID,0,VALID,25.376,VALID,320,VALID,0.425391,
2012-04-03, 02:36:04,VALID,1006.05,VALID,0,VALID,88.289,VALID,0,VALID,25.4169,VALID,4,VALID,0.644922,
2012-04-03, 02:37:04,VALID,1006.02,VALID,0,VALID,88.2967,VALID,0,VALID,25.4169,VALID,323,VALID,0.244531,
2012-04-03, 02:38:04,VALID,1006.03,VALID,0,VALID,88.2051,VALID,0,VALID,25.4149,VALID,357,VALID,0.913281,
2012-04-03, 02:39:04,VALID,1006.01,VALID,0,VALID,88.1441,VALID,0,VALID,25.4558,VALID,340,VALID,0.335938,
2012-04-03, 02:40:04,VALID,1006,VALID,0,VALID,88.0831,VALID,0,VALID,25.4753,VALID,355,VALID,1.08047,
2012-04-03, 02:41:04,VALID,1006,VALID,0,VALID,88.1593,VALID,0,VALID,25.4948,VALID,347,VALID,1.12852,
2012-04-03, 02:42:04,VALID,1005.99,VALID,0,VALID,88.0907,VALID,0,VALID,25.4948,VALID,333,VALID,0.665625,
2012-04-03, 02:43:04,VALID,1006,VALID,0,VALID,88.0373,VALID,0,VALID,25.4948,VALID,355,VALID,0.239844,
2012-04-03, 02:44:04,VALID,1005.97,VALID,0,VALID,87.9915,VALID,0,VALID,25.4948,VALID,9,VALID,1.0375,
2012-04-03, 02:45:04,VALID,1005.97,VALID,0,VALID,87.8084,VALID,0,VALID,25.4734,VALID,347,VALID,1.14961,
2012-04-03, 02:46:04,VALID,1005.96,VALID,0,VALID,87.6329,VALID,0,VALID,25.5142,VALID,355,VALID,1.01523,
2012-04-03, 02:47:04,VALID,1005.96,VALID,0,VALID,87.6101,VALID,0,VALID,25.5532,VALID,341,VALID,0.889453,
2012-04-03, 02:48:04,VALID,1005.98,VALID,0,VALID,87.6635,VALID,0,VALID,25.5532,VALID,351,VALID,0.225781,
2012-04-03, 02:49:04,VALID,1006,VALID,0,VALID,87.6024,VALID,0,VALID,25.5318,VALID,317,VALID,0.625,
2012-04-03, 02:50:04,VALID,1006.03,VALID,0,VALID,87.5872,VALID,0,VALID,25.5727,VALID,329,VALID,0.55,
2012-04-03, 02:51:04,VALID,1006.03,VALID,0,VALID,87.5643,VALID,0,VALID,25.5727,VALID,343,VALID,0.130859,
2012-04-03, 02:52:04,VALID,1006.04,VALID,0,VALID,87.5414,VALID,0,VALID,25.5921,VALID,351,VALID,0.485156,
2012-04-03, 02:53:04,VALID,1006.03,VALID,0,VALID,87.5261,VALID,0,VALID,25.5921,VALID,351,VALID,0.364062,
2012-04-03, 02:54:04,VALID,1006.07,VALID,0,VALID,87.5109,VALID,0,VALID,25.5727,VALID,348,VALID,0.976172,
2012-04-03, 02:55:04,VALID,1006.02,VALID,0,VALID,87.5643,VALID,0,VALID,25.5727,VALID,349,VALID,0.558984,
2012-04-03, 02:56:04,VALID,1006.04,VALID,0,VALID,87.5567,VALID,0,VALID,25.5513,VALID,343,VALID,0.949219,
2012-04-03, 02:57:04,VALID,1006.01,VALID,0,VALID,87.6253,VALID,0,VALID,25.5318,VALID,351,VALID,0.369922,
2012-04-03, 02:58:04,VALID,1006.03,VALID,0,VALID,87.6482,VALID,0,VALID,25.5532,VALID,347,VALID,0.403906,
2012-04-03, 02:59:04,VALID,1006.03,VALID,0,VALID,87.6406,VALID,0,VALID,25.5123,VALID,330,VALID,0.794531,
2012-04-03, 03:00:04,VALID,1006,VALID,0,VALID,87.694,VALID,0,VALID,25.5532,VALID,326,VALID,0.359375,
2012-04-03, 03:01:04,VALID,1006.03,VALID,0,VALID,87.6711,VALID,0,VALID,25.5318,VALID,332,VALID,0.453516,
2012-04-03, 03:02:04,VALID,1006.06,VALID,0,VALID,87.7398,VALID,0,VALID,25.5532,VALID,353,VALID,0.411719,
2012-04-03, 03:03:04,VALID,1006.05,VALID,0,VALID,87.7092,VALID,0,VALID,25.5727,VALID,351,VALID,0.422656,
2012-04-03, 03:04:04,VALID,1006.07,VALID,0,VALID,87.6329,VALID,0,VALID,25.5532,VALID,350,VALID,0.677344,
2012-04-03, 03:05:04,VALID,1006.08,VALID,0,VALID,87.6863,VALID,0,VALID,25.5318,VALID,315,VALID,0.35625,
2012-04-03, 03:06:04,VALID,1006.06,VALID,0,VALID,87.6863,VALID,0,VALID,25.5727,VALID,14,VALID,0.717188,
2012-04-03, 03:07:04,VALID,1006.06,VALID,0,VALID,87.6177,VALID,0,VALID,25.5727,VALID,353,VALID,0.822266,
2012-04-03, 03:08:04,VALID,1006.06,VALID,0,VALID,87.549,VALID,0,VALID,25.5493,VALID,334,VALID,0.765625,
2012-04-03, 03:09:04,VALID,1006.06,VALID,0,VALID,87.5338,VALID,0,VALID,25.5902,VALID,342,VALID,0.287891,
2012-04-03, 03:10:04,VALID,1006.07,VALID,0,VALID,87.5948,VALID,0,VALID,25.5902,VALID,297,VALID,0.384375,
2012-04-03, 03:11:04,VALID,1006.07,VALID,0,VALID,87.6177,VALID,0,VALID,25.5902,VALID,338,VALID,0.785937,
2012-04-03, 03:12:04,VALID,1006.09,VALID,0,VALID,87.5948,VALID,0,VALID,25.5902,VALID,1,VALID,0.650391,
2012-04-03, 03:13:04,VALID,1006.09,VALID,0,VALID,87.6177,VALID,0.0815089,VALID,25.5902,VALID,343,VALID,0.751172,
2012-04-03, 03:14:04,VALID,1006.12,VALID,0,VALID,87.5643,VALID,0.0815089,VALID,25.5902,VALID,354,VALID,0.664063,
2012-04-03, 03:15:04,VALID,1006.08,VALID,0,VALID,87.5719,VALID,0,VALID,25.5883,VALID,348,VALID,0.314453,
2012-04-03, 03:16:04,VALID,1006.11,VALID,0,VALID,87.6101,VALID,0,VALID,25.5883,VALID,347,VALID,0.611328,
2012-04-03, 03:17:04,VALID,1006.1,VALID,0,VALID,87.5948,VALID,0,VALID,25.5902,VALID,351,VALID,0.266797,
2012-04-03, 03:18:04,VALID,1006.13,VALID,0,VALID,87.5948,VALID,0,VALID,25.5902,VALID,349,VALID,0.580078,
2012-04-03, 03:19:04,VALID,1006.16,VALID,0,VALID,87.6024,VALID,0,VALID,25.5707,VALID,347,VALID,0.733203,
2012-04-03, 03:20:04,VALID,1006.16,VALID,0,VALID,87.5948,VALID,0,VALID,25.5688,VALID,315,VALID,0.487109,
2012-04-03, 03:21:04,VALID,1006.2,VALID,0,VALID,87.5948,VALID,0,VALID,25.5921,VALID,7,VALID,0.451172,
2012-04-03, 03:22:04,VALID,1006.22,VALID,0,VALID,87.6177,VALID,0,VALID,25.5688,VALID,340,VALID,0.670703,
2012-04-03, 03:23:04,VALID,1006.2,VALID,0,VALID,87.6635,VALID,0,VALID,25.5707,VALID,333,VALID,0.449219,
2012-04-03, 03:24:04,VALID,1006.24,VALID,0,VALID,87.6482,VALID,0,VALID,25.5513,VALID,344,VALID,0.313281,
2012-04-03, 03:25:04,VALID,1006.23,VALID,0,VALID,87.6863,VALID,0,VALID,25.5513,VALID,349,VALID,1.17109,
2012-04-03, 03:26:04,VALID,1006.24,VALID,0,VALID,87.7016,VALID,0,VALID,25.5318,VALID,301,VALID,0.184375,
2012-04-03, 03:27:04,VALID,1006.24,VALID,0,VALID,87.7474,VALID,0,VALID,25.5318,VALID,348,VALID,0.729688,
2012-04-03, 03:28:04,VALID,1006.25,VALID,0,VALID,87.7626,VALID,0,VALID,25.5142,VALID,353,VALID,0.336328,
2012-04-03, 03:29:04,VALID,1006.22,VALID,0,VALID,87.816,VALID,0,VALID,25.4948,VALID,341,VALID,0.505078,
2012-04-03, 03:30:04,VALID,1006.23,VALID,0,VALID,87.8389,VALID,0,VALID,25.4928,VALID,343,VALID,0.538672,
2012-04-03, 03:31:04,VALID,1006.23,VALID,0,VALID,87.8847,VALID,0,VALID,25.4734,VALID,357,VALID,0.245703,
2012-04-03, 03:32:04,VALID,1006.23,VALID,0,VALID,87.9457,VALID,0,VALID,25.4753,VALID,357,VALID,0.564453,
2012-04-03, 03:33:04,VALID,1006.21,VALID,0,VALID,88.0449,VALID,0,VALID,25.4344,VALID,356,VALID,0.392188,
2012-04-03, 03:34:04,VALID,1006.2,VALID,0,VALID,88.0525,VALID,0,VALID,25.4344,VALID,349,VALID,0.3625,
2012-04-03, 03:35:04,VALID,1006.2,VALID,0,VALID,88.0754,VALID,0,VALID,25.4344,VALID,352,VALID,0.510156,
2012-04-03, 03:36:04,VALID,1006.21,VALID,0,VALID,88.1212,VALID,0,VALID,25.4558,VALID,1,VALID,0.507031,
2012-04-03, 03:37:04,VALID,1006.18,VALID,0,VALID,88.1441,VALID,0,VALID,25.4149,VALID,354,VALID,0.254687,
2012-04-03, 03:38:04,VALID,1006.2,VALID,0,VALID,88.2127,VALID,0,VALID,25.3974,VALID,354,VALID,0.166797,
2012-04-03, 03:39:04,VALID,1006.21,VALID,0,VALID,88.2661,VALID,0,VALID,25.3584,VALID,355,VALID,0.294531,
2012-04-03, 03:40:04,VALID,1006.18,VALID,0,VALID,88.3729,VALID,0,VALID,25.3798,VALID,360,VALID,0.299219,
2012-04-03, 03:41:04,VALID,1006.21,VALID,0,VALID,88.4798,VALID,0,VALID,25.3584,VALID,340,VALID,0.471094,
2012-04-03, 03:42:04,VALID,1006.23,VALID,0,VALID,88.5789,VALID,0,VALID,25.3195,VALID,331,VALID,0.120312,
2012-04-03, 03:43:04,VALID,1006.23,VALID,0,VALID,88.7162,VALID,0,VALID,25.3195,VALID,348,VALID,0.460156,
2012-04-03, 03:44:04,VALID,1006.26,VALID,0,VALID,88.7315,VALID,0,VALID,25.3195,VALID,352,VALID,0.35,
2012-04-03, 03:45:04,VALID,1006.27,VALID,0,VALID,88.7315,VALID,0,VALID,25.3195,VALID,352,VALID,0.215234,